Other Public Products
Issued by NWS Grand Forks, ND

Home | Current Version | Previous Version | Text Only | Print | Product List | Glossary On
Versions: 1 2 3 4 5 6 7 8 9 10 11 12 13 14 15 16 17 18 19 20 21 22 23 24 25 26 27 28 29 30 31 32 33 34 35 36 37 38 39 40 41 42 43 44 45 46 47 48 49 50
180
FPUS83 KFGF 151531
OPUFGF
PRAIRIE TO PINES WEATHER ROUNDUP
NATIONAL WEATHER SERVICE EASTERN NORTH DAKOTA/GRAND FORKS ND
900 AM CST THU NOV 15 2018

 **SATELLITE DATA USED TO AUGMENT SKY COVER AT AUTOMATED STATIONS**
 *****  WEATHER ACROSS EASTERN NORTH DAKOTA  *****

CITY           SKY/WX    TMP DP  RH WIND       PRES   REMARKS
GRAND FORKS    LGT RAIN  32  29  88 N12       29.77R WCI  23
GRND FORKS AFB LGT RAIN  34  32  93 N10       29.77R
GRND FORKS NWS   N/A     32  30  92 N3        29.72R
BUXTON           N/A     35  33  94 NW5         N/A
DEVILS LAKE    LGT SNOW  30  30 100 N14       29.79R FOG     WCI  20
FARGO          PTSUNNY   34  30  85 W7        29.75S
WAHPETON ARPT    N/A     34  30  86 SW5       29.78S
$$

 *****  WEATHER ACROSS CENTRAL AND WESTERN NORTH DAKOTA  *****

CITY           SKY/WX    TMP DP  RH WIND       PRES   REMARKS
JAMESTOWN      FAIR      36  30  79 NW12      29.77R
BISMARCK       CLOUDY    42  35  76 NW18G30   29.86R
MINOT          CLOUDY    36  32  85 NW15G24   29.88R
MINOT AFB      FAIR      35  32  87 NW15      29.87R
GARRISON         N/A     36  34  92 MISG      29.87R
WILLISTON      CLOUDY    37  32  82 NW10      29.99R
DICKINSON      CLOUDY    39  31  72 NW23G33   29.94R
HETTINGER      FAIR      39  30  70 W17G23    29.98R
$$

 *****  OTHER OBSERVATIONS NORTHEAST NORTH DAKOTA  *****

CITY           SKY/WX    TMP DP  RH WIND       PRES   REMARKS
WALHALLA         N/A     28  28 100 NW17G23   29.82R WCI  16
LANGDON        PTSUNNY   28  28 100 N22       29.80R WCI  15
CAVALIER       FAIR      28  25  86 N18G25    29.80R FOG     WCI  16
GRAFTON        FAIR      30  28  93 N18       29.79R WCI  18
CANDO          PTSUNNY   30  30 100 N14G23    29.84R WCI  20
FORT TOTTEN      N/A     33  31  92 N6        29.95
ROLLA          FAIR      28  28 100 N13       29.82S WCI  18
RUGBY          NOT AVBL
 ***** THE ABOVE OBSERVATIONS ARE NON NWS ARE NOT QUALITY
        CONTROLLED AND MAY MIS-REPORT RAIN FOR SNOW...
$$

 *****  OTHER OBSERVATIONS SOUTHEAST NORTH DAKOTA *****

CITY           SKY/WX    TMP DP  RH WIND       PRES   REMARKS
COOPERSTOWN    CLOUDY    36  32  87 NW10      29.76R
VALLEY CITY    FAIR      36  32  87 W13       29.77R
OAKES          FAIR      37  30  75 W16       29.79R
GWINNER          N/A     36  32  87 CALM      29.77F
BUFFALO          N/A     35  31  87 E6          N/A
WYNDMERE       NOT AVBL
 ***** THE ABOVE OBSERVATIONS ARE NON NWS ARE NOT QUALITY
       CONTROLLED AND MAY MIS-REPORT RAIN FOR SNOW...
$$

  *****  WEATHER ACROSS NORTHERN MINNESOTA  *****

CITY           SKY/WX    TMP DP  RH WIND       PRES   REMARKS
FLAG ISLAND    FAIR      30  28  93 CALM      29.72R
WARROAD        FAIR      30  27  86 CALM      29.73R
ROSEAU         FAIR      32  27  80 NW5       29.73R
HALLOCK        PTSUNNY   28  27  93 NW13G18   29.77R FOG     WCI  18
THF RVR FALLS  MIX PCPN  32  30  92 NW7       29.74R
HALSTAD          N/A     35  30  81 NW9         N/A
FOSSTON        PTSUNNY   30  28  93 SW10      29.73R WCI  21
BAUDETTE       CLOUDY    32  29  88 CALM      29.72R
WASKISH        FAIR      36  28  75 S5        29.72R
CROOKSTON      PTSUNNY   34  30  86 N12       29.76R
$$
  *****  WEATHER ACROSS CENTRAL AND WEST MINNESOTA  *****

CITY           SKY/WX    TMP DP  RH WIND       PRES   REMARKS
BEMIDJI        PTSUNNY   32  26  81 S6        29.72F
PARK RAPIDS    PTSUNNY   29  25  85 S10       29.73F WCI  20
WADENA         FAIR      28  25  86 S5        29.75F WCI  23
DETROIT LAKES  FAIR      34  30  86 SW3       29.75S
MOORHEAD       FAIR      34  28  80 SW3       29.76F
FERGUS FALLS   FAIR      32  28  86 S7        29.81S
ELBOW LAKE     FAIR      31  28  92 S6        29.78F WCI  25
MORRIS MN      FAIR      30  28  93 CALM      29.79F
STAPLES        FAIR      28  25  86 S9        29.77F WCI  20
WHEATON        FAIR      37  28  70 SW6       29.80F
$$
  *****  WEATHER ELSEWHERE ACROSS MINNESOTA  *****

CITY           SKY/WX    TMP DP  RH WIND       PRES   REMARKS
DULUTH         FAIR      30  19  63 SW16G22   29.81F WCI  19
INTRNTL FALLS  CLOUDY    35  28  75 S6        29.74F
ELY            FAIR      30  19  64 S10       29.79F WCI  21
CLOQUET        FAIR      28  18  64 S12G17    29.82F WCI  18
BRAINERD       FAIR      31  21  66 S10       29.80S WCI  22
HIBBING        FAIR      28  20  71 S7        29.79F WCI  21
ALEXANDRIA     FAIR      33  25  72 SW10      29.79F WCI  25
SAINT CLOUD    FAIR      30  22  72 S12       29.84F WCI  20
MINNEAPOLIS    FAIR      32  21  64 S9        29.91F WCI  24
$$

  *****  WEATHER ACROSS SOUTH DAKOTA  *****

CITY           SKY/WX    TMP DP  RH WIND       PRES   REMARKS
SIOUX FALLS    FAIR      32  26  78 S7        29.90F
BROOKINGS      FAIR      30  28  92 S8        29.88S WCI  22
WATERTOWN      FAIR      30  27  88 S6        29.83F WCI  24
HURON          FAIR      31  26  82 S5        29.89S
SISSETON         N/A     43  28  55 W16       29.77S
ABERDEEN       FAIR      37  29  72 W8        29.83S
MITCHELL       FAIR      38  29  70 W12       29.92R
PIERRE         FAIR      47  29  49 W17       29.95R
MOBRIDGE       FAIR      47  31  53 NW20G28   29.86S
RAPID CITY     FAIR      48  25  40 NW23G33   30.06R
$$

  *****  SOME WEATHER IN NEARBY STATES *****

CITY           SKY/WX    TMP DP  RH WIND       PRES   REMARKS
GLASGOW MT     CLOUDY    38  31  76 W8        30.08R
GREAT FALLS MT FAIR      33  28  81 SW12      30.15R WCI  24
CHEYENNE WY    FAIR      43  17  35 NW13G23   30.18R
SCOTTSBLUFF NE FAIR      39  24  55 NW9       30.14R
OMAHA NE       FAIR      32  21  64 S10       30.00F WCI  24
DES MOINES IA  FAIR      29  17  61 S12       30.06F WCI  19
DAVENPORT IA   FAIR      20  16  84 E3        30.14F FOG
CHICAGO IL     FLURRIES  34  28  79 VRB5      30.08F
EAU CLAIRE WI  FAIR      28  17  63 S12       29.98F WCI  18
LA CROSSE WI   FAIR      31  17  56 S16       30.05F WCI  20
$$

  *****  SOME NATIONAL WEATHER *****

CITY           SKY/WX    TMP DP  RH WIND       PRES   REMARKS
LA GUARDIA NY  CLOUDY    34  18  52 NE13      30.55S WCI  25
RALEIGH NC     LGT RAIN  41  40  96 NE15      30.03F FOG
ATLANTA GA     CLOUDY    44  39  82 E5        30.09R
NEW ORLEANS LA FAIR      41  31  67 N8        30.34S
OKLAHOMA CITY  FAIR      39  28  64 SW8       30.15S
ALBUQUERQUE NM FAIR      33  19  56 CALM      30.31S
SALT LAKE CITY MOCLDY    30  21  69 SE5       30.36S
LOS ANGELES CA FAIR      59  22  24 NE6       30.10R
BOISE ID       FAIR      29  17  61 SE7       30.38R WCI  22
SEATTLE WA     MOCLDY    49  45  86 SE7       30.35F
$$

*** WEATHER ACROSS MANITOBA...SASKATCHEWAN AND ONTARIO ***
                ***ONTARIO***

CITY           SKY/WX    TMP DP  RH WIND       PRES   REMARKS
GERALDTON      CLOUDY    32  25  74 S15G24    29.81F WCI  22
THUNDER BAY    CLOUDY    36  27  69 SW8       29.85F
SIOUX LOOKOUT  CLOUDY    30  27  86 SW3       29.71F
TORONTO        CLOUDY    32  19  59 E20G29    30.32F WCI  20
BIG TROUT LK   CLOUDY    16  16 100 NE6       29.77S WCI   7
PICKLE LAKE    CLOUDY    28  25  86 SW5       29.70F WCI  23
DRYDEN         PTSUNNY   30  27  86 S6        29.71S WCI  24
KENORA         CLOUDY    30  28  93 N5        29.71S
$$
                *** MANITOBA***

CITY           SKY/WX    TMP DP  RH WIND       PRES   REMARKS
BRANDON        CLOUDY    27  23  86 CALM      29.88R
DAUPHIN        CLOUDY    27  23  86 N10       29.95R WCI  17
ISLAND LAKE    FLURRIES  14  12  92 N13G20    29.87R WCI   0
PILOT MOUND      N/A     27  23  86 N15         N/A  WCI  15
THE PAS        FLURRIES  16   9  73 N13G21    30.02R WCI   2
THOMPSON       LGT SNOW   3   0  85 N14       30.05R DRFTSNOWWCI -15
WINNIPEG       CLOUDY    25  21  86 N17       29.83R WCI  11
LYNN LAKE      FLURRIES  -4  -8  84 NE9       30.14R WCI -20
CHURCHILL      SNOW       0  -4  85 N22G30    30.24R VSB 3/8 WCI -23
GILLAM         LGT SNOW  12   9  85 NE20G30   30.02S WCI  -6
$$
                ***SASKATCHEWAN***

CITY           SKY/WX    TMP DP  RH WIND       PRES   REMARKS
ESTEVAN        CLOUDY    34  30  86 NW15G21   29.94R WCI  24
KINDERSLEY     CLOUDY    34  34 100 W25G33    30.02R WCI  21
LLOYDMINSTER   CLOUDY    30  28  93 NW6       30.00R WCI  24
PRINCE ALBERT  CLOUDY    27  25  93 VRB2      30.01R
REGINA         CLOUDY    30  28  93 NW8       29.99R WCI  23
YORKTON        CLOUDY    28  27  93 NW6       29.95R WCI  22
N. BATTLEFORD  MOCLDY    27  25  93 NW5       30.02R WC



USA.gov is the U.S. government's official web portal to all federal, state and local government web resources and services.